Location: Unspecified
(0.0000°N, 0.0000°E)
Time: 20:44:28
(UTC+01:00)

ISS - Visible Passes

Search period start: 16 February 2019 00:00
Search period end: 26 February 2019 00:00
Orbit: 403 x 411 km, 51.6° (Epoch: 17 February)

Date Brightness Start Highest point End Pass type
(mag) Time Alt. Az. Time Alt. Az. Time Alt. Az.
17 Feb -2.4 06:41:21 10° SSW 06:44:29 42° SE 06:47:34 10° NE visible
18 Feb -0.7 05:50:56 10° SSE 05:53:06 16° SE 05:55:15 10° E visible
19 Feb -3.3 06:35:00 10° WSW 06:38:03 36° NW 06:41:04 10° NNE visible
20 Feb -3.6 05:46:54 67° E 05:46:54 67° E 05:49:53 10° NE visible
